Regional Weather Roundup
Issued by NWS Albany, NY

Home | Current Version | Previous Version | Text Only | Print | Product List | Glossary On
Versions: 1 2 3 4 5 6 7 8 9 10 11 12 13 14 15 16 17 18 19 20 21 22 23 24 25 26 27 28 29 30 31 32 33 34 35 36 37 38 39 40 41 42 43 44 45 46 47 48 49 50
000
ASUS41 KALY 010210
RWRALY

NEW YORK STATE HOURLY WEATHER ROUNDUP
NATIONAL WEATHER SERVICE ALBANY NY
900 PM EST TUE FEB 28 2017

NOTE: "FAIR" INDICATES FEW OR NO CLOUDS BELOW 12,000 FEET WITH NO
SIGNIFICANT WEATHER AND/OR NO OBSTRUCTIONS TO VISIBILITY.

NYZ032-033-038>043-046>054-057>066-NYZ062>081-082-084-010300-
EAST


CITY           SKY/WX    TMP DP  RH WIND       PRES   REMARKS
ALBANY         CLOUDY    56  44  64 S13G24    30.03F
GLENS FALLS    CLOUDY    43  33  68 CALM      30.02F
POUGHKEEPSIE   CLOUDY    53  48  83 S5        30.07F
NEWBURGH       MOCLDY    52  50  93 SE6       30.10S
MONTGOMERY     CLOUDY    53  48  83 CALM      30.06F
WHITE PLAINS   FOG       49  48  97 SE5       30.10F VSB 1/8
ISLIP          FOG       49  49 100 SE7       30.14F VSB 1/8
NEW YORK CITY  CLOUDY    55  49  80 S10       30.10F
CENTRAL PARK   CLOUDY    52  49  89 S8        30.12F
$$

NYZ005>009-017-018-044>046-055-056-010300-
CENTRAL


CITY           SKY/WX    TMP DP  RH WIND       PRES   REMARKS
FULTON         CLOUDY    52  37  56 VRB3      29.88F
SYRACUSE       MOCLDY    57  38  48 S10       29.88F
ROME           CLOUDY    51  36  56 E9        29.95F
ELMIRA         CLOUDY    57  35  43 S9        29.93F
BINGHAMTON     CLOUDY    53  36  52 S8        29.96F
MONTICELLO     CLOUDY    52  45  76 S7        30.07F
$$

NYZ026>034-041>043-087-010300-
NORTH


CITY           SKY/WX    TMP DP  RH WIND       PRES   REMARKS
WATERTOWN      CLOUDY    57  36  45 S10G20    29.86F
FORT DRUM      NOT AVBL
OGDENSBURG     CLOUDY    42  35  74 SE3       29.87F
MASSENA        CLOUDY    43  34  70 VRB5      29.90F
SARANAC LAKE   CLOUDY    44  32  62 CALM      29.92F
PLATTSBURGH    CLOUDY    43  32  65 S5        29.97F
$$

NYZ001>004-010>016-019>021-085-010300-
WEST


CITY           SKY/WX    TMP DP  RH WIND       PRES   REMARKS
NIAGARA FALLS  CLOUDY    57  42  57 S12       29.78F
BUFFALO        CLOUDY    57  43  59 S16       29.79F
DUNKIRK        CLOUDY    57  47  69 S17G28    29.80F
JAMESTOWN      CLOUDY    54  45  71 S18G24    29.84F
WELLSVILLE     CLOUDY    53  41  63 S12G20    29.90F
ROCHESTER      CLOUDY    58  38  47 S8        29.83F
PENN YAN       CLOUDY    55  36  48 S12       29.88F
$$

             KEY
       WCI = WIND CHILL INDEX
       VSB = VISIBILITY
       HX  = HEAT INDEX
$$



USA.gov is the U.S. government's official web portal to all federal, state and local government web resources and services.